COSMOS 2514 (751) (41330 NORAD) Tracking and Keplerian Element Data

This shows tracking and keplerian element data for the satellite.

Feedback or suggestion? Click here.




ElementValue
Catalog41330
NameCOSMOS 2514 (751)
Epoch Orbit2212
Epoch Day345.57549244
Epoch Year2018
RAAN46.2224
Inclination65.2927
Eccentricity0.0011161
Argument of Perigee217.2475
Mean Anonmoly139.8265
Mean Motion2.13103084
Decay Rate-5.9E-07
L11 41330U 16008A 18345.57549244 -.00000059 00000-0 00000+0 0 9991
L22 41330 65.2927 46.2224 0011161 217.2475 139.8265 2.13103084 22125

Live tracking and technical data element details for COSMOS 2514 (751) (NORAD 41330). COSMOS 2514 (751) can be tracked NOW for your location showing map with azimuth and elevation plus other details from your city location.

Track the satellite on the map from your city or location and see movement details for azimuth, elevation, latitude, longitude, range, height, and movement on the map or in text.







IsCatalogInMostPopularTable: catalog: 41330, numindb: 93
Update: records affected: 1



GetName: 41330 COSMOS 2514 (751)

Hit Count: updated at: Thu, 13 Dec 2018 04:12:23 GMT